TimeFrame on Redefined Productions
Outwar Sigil TimeFrame

Sigil TimeFrame

95 Gods Updated: 2019-03-22 17:50:04
NameTime LeftWindow Opens
Old World Drake4d 13:262019-03-18 10:53:00
Animated Captain3d 10:512019-03-19 13:28:00
Jazzmin, Maiden of Vitality1d 06:592019-03-21 17:20:00
Amalgamated Apparition1d 04:092019-03-21 20:10:00
Lord Sibannac0d 19:522019-03-22 04:27:00
Lord Xordam0d 15:112019-03-22 09:08:00
Traxodon the Plaguebringer0d 13:482019-03-22 10:31:00
Ormsul the Putrid0d 09:522019-03-22 14:27:00
Lacuste of the Swarm0d 09:442019-03-22 14:35:00
Lord Narada0d 08:422019-03-22 15:37:00
Zikkir the Dark Archer0d 07:002019-03-22 17:19:00
Freezebreed, The Frozen Manipulator0d 06:052019-03-22 18:14:00
Pinosis0d 02:312019-03-22 21:48:00
Mistress of the Sword0d 02:222019-03-22 21:57:00
Rancid, Lord of Thugs0d 02:182019-03-22 22:01:00
Archdevil Yirkon0d 01:232019-03-22 22:56:00
Ebliss, Fallen Angel of Despair0d 00:522019-03-22 23:27:00
Nayark the Mummified Sorcerer0d 00:352019-03-23 00:55:00
Hyrak, Bringer of Nightmares0d 00:512019-03-23 01:11:00
Anguish0d 01:212019-03-23 01:41:00
Sarcrina the Astral Priestess0d 03:022019-03-23 03:22:00
Wanhiroeaz the Devourer0d 03:172019-03-23 03:37:00
Synge, The Red Dragon0d 03:242019-03-23 03:44:00
Garland, The Lord Keeper0d 03:302019-03-23 03:50:00
Dreg nor, Keeper of the Infernal Essence0d 05:492019-03-23 06:09:00
King Ashnar, Lord of the Unliving0d 06:222019-03-23 06:42:00
Volgan the Living Ironbark0d 07:012019-03-23 07:21:00
Viserion, the Necrodragon0d 07:122019-03-23 07:32:00
Melt Bane, The Forbidden Demon Dragon0d 09:062019-03-23 09:26:00
Detox0d 09:232019-03-23 09:43:00
Ganja the Stone Golem0d 11:172019-03-23 11:37:00
Brutalitar, Lord of the Underworld0d 11:202019-03-23 11:40:00
Kretok, Descendant of Nature0d 11:592019-03-23 12:19:00
Varsanor, Master of Darkness0d 12:172019-03-23 12:37:00
Tylos, The Lord Master0d 12:242019-03-23 12:44:00
Bloodchill the Grizzly0d 12:402019-03-23 13:00:00
Vitkros, Hydra of the Deep0d 12:482019-03-23 13:08:00
Nessam0d 13:462019-03-23 14:06:00
Crane0d 13:472019-03-23 14:07:00
Lady Chaos, Queen of the Abyss0d 14:232019-03-23 14:43:00
Lord Varan0d 14:352019-03-23 14:55:00
Lady Ariella0d 14:552019-03-23 15:15:00
Numerocure, The Black Messenger of Evil0d 15:202019-03-23 15:40:00
The Emerald Assassin0d 15:322019-03-23 15:52:00
Baron Mu, Dark Rider of the Undead0d 17:312019-03-23 17:51:00
Murderface0d 17:332019-03-23 17:53:00
Great Lord Ganeshan0d 17:512019-03-23 18:11:00
Nar Zhul, Slayer of All0d 19:062019-03-23 19:26:00
Keeper of Nature0d 19:272019-03-23 19:47:00
Dlanod, the Crazed Chancellor0d 19:562019-03-23 20:16:00
Jorun the Blazing Swordsman0d 20:562019-03-23 21:16:00
Zertan, The Collector0d 21:142019-03-23 21:34:00
Slashbrood, Devourer of the Blackness0d 22:032019-03-23 22:23:00
Nafir, God of Desolation0d 22:372019-03-23 22:57:00
Rotborn, Eater of the Dead0d 23:062019-03-23 23:26:00
Ancient Magus Tarkin1d 02:502019-03-24 03:10:00
Threk, King of Lords1d 03:032019-03-24 03:23:00
Skybrine The Inescapable1d 03:212019-03-24 03:41:00
Tsort1d 04:462019-03-24 05:06:00
Shadow1d 06:312019-03-24 06:51:00
Gnorb1d 07:572019-03-24 08:17:00
Raiyar, the Shadow Master1d 12:172019-03-24 12:37:00
Samatha Dark-Soul1d 18:242019-03-24 18:44:00
Bolkor, the Holy Master1d 20:312019-03-24 20:51:00
Lord Suka1d 20:382019-03-24 20:58:00
Xynak, the Arcane Master1d 20:562019-03-24 21:16:00
Ag Nabak the Abomination1d 22:052019-03-24 22:25:00
Akkel the Enflamed Warrior2d 01:152019-03-25 01:35:00
Esquin, the Kinetic Master2d 02:562019-03-25 03:16:00
Terrance, Rebel of Rallis2d 04:022019-03-25 04:22:00
Smoot the Yeti2d 05:232019-03-25 05:43:00
Quiver, The Renegade2d 07:572019-03-25 08:17:00
Hackerphage, Protector of the Gateway2d 08:342019-03-25 08:54:00
Sylvanna TorLai2d 10:042019-03-25 10:24:00
Straya, the Underworld Ruler2d 16:092019-03-25 16:29:00
Crolvak, the Fire Master2d 16:102019-03-25 16:30:00
Windstrike The Vile2d 18:142019-03-25 18:34:00
Gorganus of the Wood2d 19:342019-03-25 19:54:00
Karvaz, Lord of Alsayic2d 20:132019-03-25 20:33:00
Skarthul the Avenged3d 05:332019-03-26 05:53:00
Balerion, Dragon of Dread3d 11:392019-03-26 11:59:00
Sigil, Lich of Woe3d 16:002019-03-26 16:20:00
Anvilfist3d 17:242019-03-26 17:44:00
Howldroid, Tormentor of the Pit3d 17:332019-03-26 17:53:00
Crantos, Defender of Ultimation4d 01:432019-03-27 02:03:00
Grivvek, Protector of the Brood4d 02:542019-03-27 03:14:00
Kro Shuk, Doomslayer4d 07:322019-03-27 07:52:00
Q-SEC Commander4d 10:502019-03-27 11:10:00
Emperor Neudeus, Controller of the Universe4d 16:162019-03-27 16:36:00
Felroc, Overseer of Hellfire5d 00:002019-03-28 00:20:00
Shaik, Servant of Arkron258d 19:542018-07-07 04:25:00
Rook, Hand of Arkron256d 21:442018-07-09 02:35:00
Noxious Slug50d 00:302019-01-31 23:49:00
Beast of Cards49d 06:252019-02-01 17:54:00
Jade Dragonite32d 13:312019-02-18 10:48:00